Regional Weather Roundup
Issued by NWS Wakefield, VA

Home | Current Version | Previous Version | Graphics & Text | Print | Product List | Glossary On
Versions: 1 2 3 4 5 6 7 8 9 10 11 12 13 14 15 16 17 18 19 20 21 22 23 24 25 26 27 28 29 30 31 32 33 34 35 36 37 38 39 40 41 42 43 44 45 46 47 48 49 50
000
ASUS41 KAKQ 301610
RWRAKQ

REGIONAL WEATHER ROUNDUP
NATIONAL WEATHER SERVICE WAKEFIELD VA
1200 PM EDT TUE SEP 30 2014

Note: "fair" indicates few or no clouds below 12,000 feet with no
significant weather and/or obstructions to visibility. * = Denotes
station may not report precipitation (e.g., rain,snow,etc.),
thunder or fog.

VAZ042-051-052>054-056-301700-
NORTHERN VIRGINIA

CITY           SKY/WX    TMP DP  RH WIND       PRES   REMARKS
WASH NATIONAL  CLOUDY    70  61  73 S6        29.94S
DULLES         CLOUDY    66  61  84 SW5       29.94S
FORT BELVOIR   CLOUDY    67  61  82 E3        29.94S
QUANTICO       CLOUDY    66  61  84 S5        29.94F
FREDERICKSBRG* CLOUDY    68  64  87 CALM      29.93S
STAFFORD*      CLOUDY    67  67 100 E3        29.97F
WARRENTON      CLOUDY    67  65  96 CALM      29.93F
CULPEPER*      CLOUDY    66  63  88 CALM      29.94F
MANASSAS*      CLOUDY    66  64  94 CALM      29.94F
LEESBURG*      CLOUDY    66  64  94 CALM      29.95S
WINCHESTER     SUNNY     73  59  60 CALM      29.92S
FRONT ROYAL*   SUNNY     73  61  64 CALM      29.90F
LURAY*         PTSUNNY   79  63  57 CALM      29.91F
$$

VAZ048-049-060>072-079>083-301700-
CENTRAL AND SOUTH CENTRAL VIRGINIA...AND NORTH CENTRAL NORTH CAROLINA

CITY           SKY/WX    TMP DP  RH WIND       PRES   REMARKS
RICHMOND       PTSUNNY   71  61  70 CALM      29.92F
CHESTERFIELD*  CLOUDY    68  55  64 CALM      29.94F
PETERSBURG*    CLOUDY    68  62  78 CALM      29.94S
HANOVER        CLOUDY    69  62  78 CALM      29.94F
TAPPAHANNOCK*  CLOUDY    68  61  76 CALM      29.94S
CHARLOTTSVILLE CLOUDY    65  62  90 SE5       29.93F FOG
ORANGE*        CLOUDY    64  61  88 CALM      29.95S
LOUISA*        CLOUDY    64  63  94 CALM      29.93S
FARMVILLE*     CLOUDY    66  64  94 CALM      29.92S
CREWE*         CLOUDY    67  61  82 CALM      29.93F
FORT PICKETT*  CLOUDY    67  63  86 NW3       29.94S
LUNENBURG*     CLOUDY    66  63  90 CALM      29.94S
SOUTH HILL*    CLOUDY    68  66  94 CALM      29.98F
LAWRENCEVILLE* CLOUDY    66  63  91 CALM      29.93S
ROANOKE RAPIDS CLOUDY    64  63  94 CALM      29.93F
RALEIGH        CLOUDY    66  61  84 CALM      29.94F
$$

VAZ088>098-301700-
SOUTHEAST VIRGINIA

CITY           SKY/WX    TMP DP  RH WIND       PRES   REMARKS
NORFOLK        SUNNY     73  63  70 N9        29.91F
VIRGINIA BEACH MOSUNNY   76  63  64 NE9       29.91S
NORFOLK NAVAL  MOSUNNY   74  64  71 N9        29.93S
WEST POINT*    CLOUDY    70  62  74 CALM      29.94S
NEWPORT NEWS   MOSUNNY   77  64  64 CALM      29.91F
LANGLEY AFB    SUNNY     73  64  73 NE12      29.92F
FORT EUSTIS    PTSUNNY   72  72 100 VRB1      29.90F
WILLIAMSBURG*  SUNNY     73  66  78 S3        29.93S
HR EXEC AP*    MOSUNNY   75  63  64 E3        29.93F
FRANKLIN*      CLOUDY    64  64 100 CALM      29.93S
WAKEFIELD      MOSUNNY   71  62  73 CALM      29.92S
$$

VAZ020-022-025-037-045-301700-
WEST CENTRAL AND SOUTHWEST VIRGINIA

CITY           SKY/WX    TMP DP  RH WIND       PRES   REMARKS
STAUNTON*      SUNNY     76  57  51 E3        29.94F
HOT SPRINGS VA SUNNY     64  43  46 W7        30.05S
LYNCHBURG      MOSUNNY   72  65  78 VRB6      29.94F
DANVILLE       MOSUNNY   71  62  73 SW3       29.93F
SOUTH BOSTON*  NOT AVBL
MARTINSVILLE   SUNNY     77  64  64 CALM      29.97S
ROANOKE        MOSUNNY   72  60  66 CALM      29.96F
BLACKSBURG     SUNNY     68  66  94 W3        30.01S
DUBLIN*        SUNNY     67  67 100 CALM      30.00F
MARION*        MOSUNNY   71  61  69 SW9       30.03F
HILLSVILLE*    MOSUNNY   69  56  63 NW5       30.01S
RICHLANDS*     SUNNY     71  61  70 NW3       30.03S
WISE*          CLOUDY    70  54  56 NW5       30.04S
ABINGDON*      SUNNY     72  62  70 W5        30.01S
$$

MDZ021>025-VAZ099-100-301700-
SOUTHERN MARYLAND AND THE DELMARVA PENINSULA

CITY           SKY/WX    TMP DP  RH WIND       PRES   REMARKS
PATUXENT RIVER MOSUNNY   72  63  73 CALM      29.92F
BAY BRIDGE APT   N/A     70  63  78 NW7       29.93S
LEONARDTOWN    CLOUDY    68  61  77 CALM      29.94F
DOVER          SUNNY     72  61  68 E8        29.92S
GEORGETOWN     MOSUNNY   73  60  63 MISG      29.93F
EASTON         PTSUNNY   75  63  64 S5        29.96S
CAMBRIDGE      MOSUNNY   75  63  64 E5        29.92S
SALISBURY      MOSUNNY   76  60  57 SE6       29.92F
OCEAN CITY     SUNNY     73  61  65 VRB7      29.93S
WALLOPS ISLAND SUNNY     74  64  71 NE10      29.92F
ACCOMACK*      MOSUNNY   73  61  64 E3        29.91F
$$

NCZ012>017-030>032-301700-
EASTERN NORTH CAROLINA

CITY           SKY/WX    TMP DP  RH WIND       PRES   REMARKS
ELIZABETH CITY PTSUNNY   74  62  66 NE7       29.90F
AHOSKIE*       CLOUDY    67  64  89 CALM      29.92F
EDENTON*       MOSUNNY   75  62  63 E5        29.90F
CURRITUCK*     MOSUNNY   75  62  63 NE10      29.92S
KILL DEVIL HLS SUNNY     74  64  71 NE9       29.89S
MANTEO         MOSUNNY   74  65  71 NE9       29.90F
CAPE HATTERAS  SUNNY     73  67  81 NE8       29.88S
TARBORO*       MOSUNNY   70  64  83 CALM      29.93F
GOLDSBORO      MOSUNNY   73  67  80 CALM      29.90S
WASHINGTON     MOSUNNY   74  63  68 E7        29.91F
GREENVILLE     SUNNY     73  63  68 N3        29.93F
NEW BERN       SUNNY     77  63  61 VRB6      29.91F
WILMINGTON     SUNNY     76  63  64 NE13      29.89F
$$

VAZ048-301700-
ELSEWHERE

CITY           SKY/WX    TMP DP  RH WIND       PRES   REMARKS
HARRISBURG PA  PTSUNNY   68  60  75 CALM      29.92F
BALTIMORE      MOSUNNY   70  61  73 S6        29.92F
ANNAPOLIS        N/A     72  63  73 SE8       29.92F
ANDREWS AFB    CLOUDY    68  62  81 SE2       29.93F
WILMINGTON DE  SUNNY     72  60  66 S5        29.94S
PHILADELPHIA   MOSUNNY   76  57  51 VRB5      29.94S
WILDWOOD NJ*   SUNNY     72  54  53 E7        29.94F
ATLANTIC CITY  SUNNY     74  53  48 E6        29.94S
HENDERSON NC   CLOUDY    65  62  88 CALM      29.94S FOG
GREENSBORO     PTSUNNY   69  64  84 CALM      29.94F
ROCKY MOUNT    CLOUDY    67  63  87 N3        29.93F
FAYETTEVILLE   SUNNY     73  63  70 NE5       29.92F
CHARLOTTE      MOSUNNY   72  62  71 NW3       29.95F
$$

VAZ100-301700-
MARINE

STATION/POSITION TIME  TEMP    WIND        PRES    WAVE   SWELL
                       AIR SEA DIR/SP/G            HT/PER HT/PER
                 (UTC) (F)     (DEG/KT/KT) (MB)    (FT/S) (FT/S)
44066 TX TWR #4  1600   69 69   60/  8/  8 1013.0F   2/ 7   2/ 7
CAPE MAY NJ      1600   71 74   50/  7/ 11 1013.2F
LEWES DE         1600   69 70   90/ 10/ 12 1013.3S
15NM E FENWICK I 1600   69 70              1013.2S   2/14
OCEAN-CITY-INLET 1600   71 71   80/  6/  9 1013.0F
WACHAPREAGUE VA  1600   71 72   70/  6/  7 1013.1S
THOMAS POINT MD  1600   67 72  220/  4/  5 1014.5S
GOOSES REEF MD   1600   68     230/  2/  4 1014.0F
COVE POINT MD    1600   68     200/  3/  3 1013.2F
SOLOMONS ISLAND  1600      72                N/A
BISHOPS HEAD MD  1600   69 72  110/  4/  5 1012.8S
PINEY POINT MD   1600          240/  3/  4   N/A
POTOMAC MD       1600   67     290/  4/  6 1012.9S
CAMBRIDGE MD     1600   70 71   30/  3/  4 1012.8F
LEWISETTA VA     1600   69 71   CALM  /  2 1013.0F
RAPPAHANNOCK LGT 1600          360/  3/  4 1013.5F
STINGRAY PT      1600   68      10/  2/  4   N/A
YORK RVR RNG VA  1600   68      10/  5/  6 1012.6F
YORKTOWN VA      1600   70 72   CALM  /  1 1012.8F
JAMESTOWN VA     1600   67     270/  2/  2   N/A
DOMINION TERM VA 1600   69     260/  1/  2 1013.1F
KIPTOPEKE VA     1600      76  270/  2/  5   N/A
CHES BAY BRIDGE  1600   69 72   20/  5/  5 1012.6F
CHESAPEAKE LGHT  1500   70      30/  8/  9 1013.8F
WILLOUBY STN VA  1600   69      70/  5/  7 1011.8F
S CRANEY ISL VA  1600          330/  6/  8 1012.6F
CAPE HENRY BUOY  1600      73                N/A     2/14   2/14
1ST LANDING BUOY 1600   70      10/  4/  6 1012.9S
CAPE CHARLES BUO 1600      73                N/A     2/14   2/14
OFFSHORE WE BUOY 1600      73                N/A     2/14   2/14
64NM E OF VA BCH 1600   70 72   30/  8/  8 1011.9F   2/14   2/14
DUCK PIER NC     1600   71 72   20/ 10/ 11 1011.8S
44100 DUCK FRF   1600      72                N/A     2/ 8
44056 DUCK FRF   1600                        N/A     2/14   2/14
OREGON INLET NC  1600   72 73   20/ 10/ 13 1012.2S
HATTERAS NC      1600   71 73   20/ 13/ 15 1012.2F
DIAMOND SHLS NC  1600   74      10/ 14/ 16 1011.3F   4/ 5   2/ 8
CAPE LOOKOUT NC  1500   72      10/ 13/ 16 1011.8F
$$



USA.gov is the U.S. government's official web portal to all federal, state and local government web resources and services.